TimeCST,TemperatureF,Dew PointF,Humidity,Sea Level PressureIn,VisibilityMPH,Wind Direction,Wind SpeedMPH,Gust SpeedMPH,PrecipitationIn,Events,Conditions,WindDirDegrees,DateUTC
12:00 AM,72,69,87,29.92,12,Calm,Calm,,,,Scattered Clouds,,2012-12-08 06:00:00
3:00 AM,71,69,92,29.88,12,Calm,Calm,,,,Scattered Clouds,,2012-12-08 09:00:00
5:00 AM,71.6,69.8,94,29.89,6.2,Calm,Calm,-,N/A,,Mostly Cloudy,0,2012-12-08 11:00:00
6:00 AM,70,69,94,29.92,12,Calm,Calm,,,,Partly Cloudy,,2012-12-08 12:00:00
6:00 AM,69.8,68.0,94,29.92,6.2,Calm,Calm,-,N/A,,Scattered Clouds,0,2012-12-08 12:00:00
7:00 AM,69.8,69.8,100,29.92,6.2,Calm,Calm,-,N/A,,Mostly Cloudy,0,2012-12-08 13:00:00
8:00 AM,73.4,71.6,94,29.95,6.2,Calm,Calm,-,N/A,,Mostly Cloudy,0,2012-12-08 14:00:00
9:00 AM,81,74,72,29.97,12,Calm,Calm,,,,Mostly Cloudy,,2012-12-08 15:00:00
9:00 AM,80.6,73.4,79,29.96,6.2,Calm,Calm,-,N/A,,Mostly Cloudy,0,2012-12-08 15:00:00
10:00 AM,82.4,71.6,70,29.95,6.2,SE,5.8,-,N/A,,Scattered Clouds,130,2012-12-08 16:00:00
11:00 AM,82.4,69.8,66,29.94,6.2,ESE,5.8,-,N/A,,Scattered Clouds,120,2012-12-08 17:00:00
12:00 PM,83,69,54,29.92,12,SSE,6.9,,,,Partly Cloudy,150,2012-12-08 18:00:00
12:00 PM,82.4,69.8,66,29.91,6.2,SSE,6.9,-,N/A,,Scattered Clouds,150,2012-12-08 18:00:00
1:00 PM,84.2,69.8,62,29.89,6.2,SSE,6.9,-,N/A,,Scattered Clouds,150,2012-12-08 19:00:00
2:00 PM,84.2,69.8,62,29.87,6.2,SE,6.9,-,N/A,,Scattered Clouds,130,2012-12-08 20:00:00
3:00 PM,83,70,57,29.87,16,SE,5.8,,,,Scattered Clouds,140,2012-12-08 21:00:00
3:00 PM,82.4,69.8,66,29.86,6.2,SE,5.8,-,N/A,,Partly Cloudy,140,2012-12-08 21:00:00
4:00 PM,82.4,69.8,66,29.87,6.2,ESE,5.8,-,N/A,,Partly Cloudy,110,2012-12-08 22:00:00
5:00 PM,80.6,69.8,70,29.88,6.2,East,3.5,-,N/A,,Partly Cloudy,100,2012-12-08 23:00:00
6:00 PM,77,70,74,29.91,12,East,4.6,,,,Scattered Clouds,100,2012-12-09 00:00:00
6:00 PM,77.0,69.8,78,29.90,6.2,East,4.6,-,N/A,,Partly Cloudy,100,2012-12-09 00:00:00